Regional Weather Roundup
Issued by NWS

Home | Current Version | Previous Version | Text Only | Print | Product List | Glossary On
Versions: 1 2 3 4 5 6 7 8 9 10 11 12 13 14 15 16 17 18 19 20 21 22 23 24 25 26 27 28 29 30 31 32 33 34 35 36 37 38 39 40 41 42 43 44 45 46 47 48 49 50
771
ASUS43 KLSX 231357
RWRMO

WEATHER SUMMARY FOR MISSOURI
NATIONAL WEATHER SERVICE SPRINGFIELD MO
800 AM CST TUE JAN 23 2018

NOTE: "FAIR" INDICATES FEW OR NO CLOUDS BELOW 12,000 FEET WITH NO
       SIGNIFICANT WEATHER AND/OR OBSTRUCTIONS TO VISIBILITY.
       CURRENT SKY AND/OR WEATHER CONDITIONS ARE NOT AVAILABLE FOR
       CHILLICOTHE AND FARMINGTON.

MOZ001>031-035>038-043-044-053-054-231500-
...NORTHERN AND WESTERN MISSOURI...

CITY           SKY/WX    TMP DP  RH WIND       PRES   REMARKS
KANSAS CTY INT CLOUDY    28  24  85 NW15G21   30.11R WCI  16
LEE`S SUMMIT   CLOUDY    29  26  89 NW16      30.09R WCI  17
ST JOSEPH      CLOUDY    29  26  89 NW14      30.12R WCI  18
CHILLICOTHE      N/A     32  25  75 NW14G24   30.05R WCI  22

$$
MOZ066>068-077>081-088>096-101>105-231500-
...SOUTHWEST MISSOURI...

CITY           SKY/WX    TMP DP  RH WIND       PRES   REMARKS
SPRINGFIELD    CLOUDY    31  25  78 NW13G24   30.07R WCI  21
JOPLIN         CLOUDY    31  27  85 NW9       30.14R WCI  23
BRANSON        CLOUDY    32  25  74 NW13G33   30.08R WCI  22

$$
MOZ032>034-039>042-045>050-055>058-069>072-231500-
...CENTRAL MISSOURI...

CITY           SKY/WX    TMP DP  RH WIND       PRES   REMARKS
COLUMBIA       NOT AVBL
JEFFERSON CITY CLOUDY    34  27  75 NW16G25   30.00R WCI  24
ROLLA          CLOUDY    32  26  78 NW16G29   29.98R WCI  21
SEDALIA        CLOUDY    33  29  85 NW18      30.05R WCI  22
WARRENSBURG    CLOUDY    32  27  80 W10G20    30.08R WCI  24

$$
MOZ051-052-059>065-231500-
...EAST CENTRAL MISSOURI...

CITY           SKY/WX    TMP DP  RH WIND       PRES   REMARKS
ST LOUIS INTL  CLOUDY    35  30  82 W20       29.92R WCI  24

$$
MOZ072>076-082>087-097>100-106>115-231500-
...SOUTH CENTRAL AND SOUTHEAST MISSOURI...

CITY           SKY/WX    TMP DP  RH WIND       PRES   REMARKS
CAPE GIRARDEAU CLOUDY    37  29  72 W13       29.97R WCI  29
POPLAR BLUFF   CLOUDY    37  27  67 W13       30.00R WCI  29

$$



USA.gov is the U.S. government's official web portal to all federal, state and local government web resources and services.